Latest Weather Observations for Maria Island

IDT60901

Issued at 11:31 am EDT Sunday 1 February 2015 (issued every 10 minutes, with the page automatically refreshed every 10 minutes)

About weather observations | Map of Hobart area stations | Latest observations for Hobart area | Other Formats
Station Details ID: 092124 Name: MARIA ISLAND (POINT LESUEUR) Lat: -42.66 Lon: 148.02 Height: 28.0 m
Data from the previous 72 hours. | See also: Recent months at Maria Island
Date/Time
EDT
Tmp

°C
App
Tmp
°C
Dew
Point
°C
Rel
Hum
%
Delta-T

°C
Wind Press
QNH
hPa
Press
MSL
hPa
Rain
since
9 am
mm
Dir
 
Spd
km/h
Gust
km/h
Spd
kts
Gust
kts
01/11:30am 13.5 5.0 9.4 76 2.1 SSW 44 52 24 28 1014.1 1014.0 0.0
01/11:00am 13.8 5.4 9.0 73 2.4 SSW 43 50 23 27 1013.9 1013.8 0.0
01/10:30am 13.5 6.0 9.4 76 2.1 SSW 39 44 21 24 1013.8 1013.7 0.0
01/10:00am 13.5 5.8 10.1 80 1.8 SSW 41 46 22 25 1013.6 1013.5 0.0
01/09:30am 13.4 5.1 10.2 81 1.7 SSW 44 56 24 30 1013.4 1013.3 0.0
01/09:00am 13.4 5.1 9.5 77 2.0 SSW 43 50 23 27 1012.9 1012.8 1.0
01/08:30am 12.9 5.9 10.1 83 1.4 SSW 37 44 20 24 1012.7 1012.6 1.0
01/08:00am 12.7 5.2 10.8 88 1.0 SSW 41 50 22 27 1012.4 1012.3 1.0
01/07:30am 12.7 5.5 10.4 86 1.2 SSW 39 50 21 27 1012.0 1011.9 1.0
01/07:00am 12.6 4.1 10.8 89 0.9 SSW 46 57 25 31 1011.7 1011.6 1.0
01/06:30am 12.7 4.6 10.9 89 0.9 SSW 44 52 24 28 1011.4 1011.3 1.0
01/06:00am 12.9 4.9 10.6 86 1.2 SSW 43 48 23 26 1011.1 1011.0 1.0
01/05:30am 12.7 4.0 11.3 91 0.7 SSW 48 54 26 29 1010.9 1010.8 1.0
01/05:00am 12.7 5.6 10.9 89 0.9 SSW 39 48 21 26 1010.9 1010.8 1.0
01/04:30am 12.4 5.4 11.3 93 0.6 SSW 39 48 21 26 1010.8 1010.7 1.0
01/04:00am 12.6 5.0 11.8 95 0.4 SSW 43 52 23 28 1010.8 1010.7 0.6
01/03:30am 12.5 5.9 11.2 92 0.7 SSW 37 41 20 22 1011.0 1010.9 0.6
01/03:00am 12.8 5.2 11.7 93 0.6 SSW 43 48 23 26 1010.9 1010.8 0.6
01/02:30am 12.9 5.6 11.5 91 0.7 SSW 41 48 22 26 1010.9 1010.8 0.6
01/02:00am 12.5 4.1 11.2 92 0.7 SSW 46 54 25 29 1010.9 1010.8 0.6
01/01:30am 13.2 4.8 11.1 87 1.1 SSW 46 57 25 31 1011.0 1010.9 0.6
01/01:00am 13.1 4.7 11.0 87 1.1 SSW 46 56 25 30 1011.2 1011.1 0.6
01/12:30am 13.4 4.6 10.9 85 1.3 SSW 48 56 26 30 1011.1 1011.0 0.6
 
Date/Time
EDT
Tmp

°C
App
Tmp
°C
Dew
Point
°C
Rel
Hum
%
Delta-T

°C
Wind Press
QNH
hPa
Press
MSL
hPa
Rain
since
9 am
mm
Dir
 
Spd
km/h
Gust
km/h
Spd
kts
Gust
kts
31/11:30pm 13.9 5.3 10.3 79 1.9 SSW 46 57 25 31 1011.2 1011.1 0.6
31/11:00pm 14.1 5.1 10.3 78 2.0 SSW 48 57 26 31 1011.3 1011.2 0.6
31/10:30pm 14.1 5.6 10.7 80 1.8 SSW 46 54 25 29 1011.4 1011.3 0.6
31/10:00pm 14.1 6.2 10.7 80 1.8 SSW 43 48 23 26 1011.4 1011.3 0.6
31/09:30pm 14.1 6.0 10.7 80 1.8 SSW 44 52 24 28 1011.3 1011.2 0.6
31/09:00pm 13.9 5.8 10.9 82 1.6 SSW 44 52 24 28 1011.0 1010.9 0.6
31/08:30pm 13.7 5.0 11.2 85 1.3 SSW 48 59 26 32 1010.6 1010.5 0.6
31/08:00pm 13.7 5.5 11.8 88 1.0 SSW 46 56 25 30 1010.4 1010.3 0.4
31/07:30pm 13.9 6.5 12.3 90 0.9 SSW 43 50 23 27 1010.2 1010.1 0.4
31/07:00pm 14.0 6.0 12.4 90 0.9 SSW 46 54 25 29 1010.0 1009.9 0.4
31/06:30pm 14.0 5.1 11.9 87 1.1 SSW 50 61 27 33 1009.7 1009.6 0.2
31/05:30pm 14.3 5.5 12.2 87 1.1 S 50 57 27 31 1009.3 1009.2 0.2
31/05:00pm 14.4 6.0 12.4 88 1.1 SSW 48 57 26 31 1009.4 1009.3 0.2
31/04:30pm 14.2 6.2 12.4 89 1.0 SSW 46 54 25 29 1009.4 1009.3 0.2
31/04:00pm 14.5 6.2 12.5 88 1.1 SSW 48 57 26 31 1009.2 1009.1 0.2
31/03:30pm 14.5 6.9 12.4 87 1.1 SSW 44 54 24 29 1009.1 1009.0 0.2
31/03:00pm 14.7 7.2 12.7 88 1.1 SSW 44 52 24 28 1009.2 1009.1 0.2
31/02:30pm 14.8 7.1 13.3 91 0.8 SSW 46 54 25 29 1009.1 1009.0 0.2
31/02:00pm 14.5 7.1 13.2 92 0.7 SSW 44 54 24 29 1009.2 1009.1 0.2
31/01:30pm 14.4 6.7 13.4 94 0.6 SSW 46 54 25 29 1009.4 1009.3 0.2
31/01:00pm 14.2 6.8 13.2 94 0.6 SSW 44 52 24 28 1009.5 1009.4 0.2
31/12:30pm 14.3 6.6 13.2 93 0.6 SSW 46 54 25 29 1009.5 1009.4 0.0
31/12:00pm 13.9 5.3 12.8 93 0.6 SSW 50 57 27 31 1009.5 1009.4 0.0
31/11:30am 14.0 6.2 12.9 93 0.6 SSW 46 56 25 30 1009.7 1009.6 0.0
31/11:00am 14.0 5.7 12.6 91 0.8 SSW 48 56 26 30 1009.7 1009.6 0.0
31/10:30am 14.0 6.1 12.7 92 0.7 SSW 46 56 25 30 1009.7 1009.6 0.0
31/10:00am 14.0 5.3 12.7 92 0.7 SSW 50 59 27 32 1009.8 1009.7 0.0
31/09:30am 14.0 6.2 13.1 94 0.5 SSW 46 57 25 31 1009.8 1009.7 0.0
31/09:00am 14.0 5.4 12.9 93 0.6 SSW 50 57 27 31 1009.7 1009.6 5.6
31/08:30am 13.9 6.8 13.3 96 0.3 SSW 43 50 23 27 1009.7 1009.6 5.6
31/08:00am 13.7 6.9 13.1 96 0.3 S 41 50 22 27 1009.8 1009.7 5.4
31/07:30am 13.5 5.2 12.7 95 0.4 SSW 48 56 26 30 1009.6 1009.5 5.2
31/07:00am 13.6 5.4 13.0 96 0.3 SSW 48 57 26 31 1009.4 1009.3 5.2
31/06:30am 13.6 6.4 13.1 97 0.3 SSW 43 56 23 30 1009.5 1009.4 4.8
31/06:00am 13.7 6.5 13.1 96 0.3 SSW 43 52 23 28 1009.5 1009.4 4.4
31/05:30am 13.7 6.3 13.1 96 0.3 SSW 44 52 24 28 1009.4 1009.3 4.2
31/05:00am 13.8 6.0 12.9 94 0.5 SSW 46 54 25 29 1009.2 1009.1 3.6
31/04:30am 13.9 6.5 13.0 94 0.5 SSW 44 56 24 30 1009.3 1009.2 3.2
31/04:00am 13.5 5.7 12.9 96 0.3 SW 46 54 25 29 1009.6 1009.5 2.8
31/03:30am 13.5 5.2 12.6 94 0.5 SSW 48 56 26 30 1009.8 1009.7 2.4
31/03:00am 13.6 5.6 12.5 93 0.6 SSW 46 54 25 29 1010.1 1010.0 2.2
31/02:30am 13.3 5.3 12.4 94 0.5 SSW 46 52 25 28 1010.4 1010.3 1.8
31/02:00am 13.5 5.2 12.7 95 0.4 SSW 48 56 26 30 1010.6 1010.5 1.8
31/01:30am 13.4 5.5 12.6 95 0.4 SSW 46 54 25 29 1011.0 1010.9 1.8
31/01:00am 13.3 5.3 12.5 95 0.4 SSW 46 54 25 29 1011.2 1011.1 1.4
31/12:30am 13.2 4.8 12.3 94 0.5 SSW 48 56 26 30 1011.2 1011.1 1.2
31/12:00am 13.1 4.3 12.3 95 0.4 SSW 50 56 27 30 1011.5 1011.4 1.2
 
Date/Time
EDT
Tmp

°C
App
Tmp
°C
Dew
Point
°C
Rel
Hum
%
Delta-T

°C
Wind Press
QNH
hPa
Press
MSL
hPa
Rain
since
9 am
mm
Dir
 
Spd
km/h
Gust
km/h
Spd
kts
Gust
kts
30/11:30pm 12.8 5.1 12.2 96 0.3 SSW 44 50 24 27 1012.0 1011.9 1.0
30/11:00pm 12.8 5.1 12.0 95 0.4 SSW 44 52 24 28 1012.3 1012.2 0.6
30/10:30pm 13.1 4.5 11.8 92 0.7 SSW 48 56 26 30 1012.5 1012.4 0.2
30/10:00pm 13.3 4.7 11.5 89 1.0 SSW 48 57 26 31 1012.8 1012.7 0.2
30/09:30pm 13.4 5.6 11.1 86 1.2 SSW 43 52 23 28 1013.1 1013.0 0.0
30/09:00pm 13.5 5.7 11.0 85 1.3 SSW 43 50 23 27 1013.2 1013.1 0.0
30/08:30pm 13.3 4.8 10.8 85 1.3 SSW 46 54 25 29 1013.1 1013.0 0.0
30/08:00pm 13.6 5.1 10.6 82 1.6 SSW 46 56 25 30 1013.2 1013.1 0.0
30/07:30pm 13.9 4.9 10.3 79 1.9 SSW 48 57 26 31 1013.2 1013.1 0.0
30/07:00pm 13.7 5.5 10.3 80 1.8 SSW 44 54 24 29 1013.3 1013.2 0.0
30/06:30pm 13.2 5.2 10.6 84 1.4 SSW 43 54 23 29 1013.4 1013.3 0.0
30/06:00pm 13.8 6.7 11.0 83 1.5 SSW 39 48 21 26 1013.7 1013.6 0.0
30/05:30pm 13.9 5.7 10.5 80 1.8 S 44 54 24 29 1013.9 1013.8 0.0
30/05:00pm 14.1 5.4 10.1 77 2.1 S 46 57 25 31 1014.3 1014.2 0.0
30/04:30pm 14.0 5.4 10.2 78 2.0 S 46 57 25 31 1014.6 1014.5 0.0
30/04:00pm 14.8 6.1 10.0 73 2.5 S 46 56 25 30 1014.7 1014.6 0.0
30/03:30pm 14.9 6.6 10.1 73 2.5 S 44 56 24 30 1014.9 1014.8 0.0
30/03:00pm 14.7 6.6 10.9 78 2.0 S 44 57 24 31 1015.3 1015.2 0.0
30/02:30pm 14.0 6.0 11.0 82 1.6 S 44 56 24 30 1015.5 1015.4 0.0
30/02:00pm 14.1 5.9 10.5 79 1.9 S 44 59 24 32 1015.7 1015.6 0.0
30/01:30pm 14.7 6.6 10.1 74 2.4 S 43 52 23 28 1015.8 1015.7 0.0
30/01:00pm 14.4 6.7 10.2 76 2.2 S 41 54 22 29 1015.9 1015.8 0.0
30/12:30pm 14.6 6.9 10.0 74 2.4 S 41 52 22 28 1016.4 1016.3 0.0
30/12:00pm 14.9 7.4 10.7 76 2.2 S 41 54 22 29 1016.6 1016.5 0.0
30/11:30am 13.1 5.1 10.5 84 1.4 S 43 54 23 29 1017.0 1016.9 0.0
30/11:00am 13.9 5.7 10.3 79 1.9 S 44 56 24 30 1017.1 1017.0 0.0
30/10:30am 13.1 5.5 10.5 84 1.4 SSE 41 52 22 28 1017.6 1017.5 0.0
30/10:00am 13.6 5.9 10.2 80 1.8 S 41 50 22 27 1017.7 1017.6 0.0
30/09:49am 13.3 5.6 10.1 81 1.7 S 41 61 22 33 1017.8 1017.7 0.0
30/09:30am 13.8 5.6 9.6 76 2.2 S 43 57 23 31 1017.8 1017.7 0.0
30/09:00am 12.9 4.9 10.4 85 1.3 S 43 52 23 28 1017.9 1017.8 0.6
30/08:30am 13.3 7.4 10.5 83 1.5 SSE 32 50 17 27 1018.0 1017.9 0.6
30/08:00am 13.4 5.9 9.5 77 2.0 SSE 39 59 21 32 1018.0 1017.9 0.6
30/07:53am 13.0 6.3 9.6 80 1.7 SSE 35 59 19 32 1017.9 1017.8 0.6
30/07:30am 12.6 6.5 10.3 86 1.2 SSE 33 46 18 25 1018.0 1017.9 0.6
30/07:00am 13.1 5.6 9.5 79 1.8 SSE 39 54 21 29 1017.9 1017.8 0.4
30/06:30am 13.2 6.1 9.5 78 1.9 S 37 50 20 27 1018.1 1018.0 0.4
30/06:00am 13.2 5.5 8.7 74 2.3 SSE 39 48 21 26 1018.1 1018.0 0.4
30/05:30am 13.1 5.5 9.0 76 2.1 SSE 39 56 21 30 1018.2 1018.1 0.4
30/05:00am 13.5 5.9 9.0 74 2.3 SSE 39 54 21 29 1018.2 1018.1 0.4
30/04:30am 13.4 6.4 8.5 72 2.5 SSE 35 52 19 28 1018.4 1018.4 0.4
30/04:13am 13.1 6.5 8.6 74 2.3 SSE 33 52 18 28 1018.6 1018.6 0.4
30/04:00am 13.0 6.2 7.9 71 2.5 SSE 33 44 18 24 1018.8 1018.8 0.4
30/03:37am 13.4 6.4 8.3 71 2.5 SSE 35 54 19 29 1018.9 1018.9 0.4
30/03:30am 13.3 6.6 8.0 70 2.6 SSE 33 46 18 25 1018.9 1018.9 0.4
30/03:00am 13.2 6.1 7.9 70 2.6 SSE 35 48 19 26 1019.4 1019.4 0.4
30/02:30am 13.2 5.7 7.9 70 2.6 S 37 46 20 25 1019.7 1019.7 0.4
30/02:00am 13.3 6.1 7.5 68 2.8 S 35 50 19 27 1019.8 1019.8 0.4
30/01:30am 13.3 5.0 7.7 69 2.8 S 41 54 22 29 1019.9 1019.9 0.4
30/01:00am 13.3 6.1 9.2 76 2.1 S 37 48 20 26 1020.3 1020.3 0.4
30/12:30am 12.3 3.8 9.1 81 1.6 SSE 44 56 24 30 1021.0 1021.0 0.4
30/12:13am 13.0 6.4 8.5 74 2.2 S 33 56 18 30 1020.9 1020.9 0.4
30/12:00am 12.4 7.1 8.3 76 2.0 SE 26 39 14 21 1021.4 1021.4 0.4
 
Date/Time
EDT
Tmp

°C
App
Tmp
°C
Dew
Point
°C
Rel
Hum
%
Delta-T

°C
Wind Press
QNH
hPa
Press
MSL
hPa
Rain
since
9 am
mm
Dir
 
Spd
km/h
Gust
km/h
Spd
kts
Gust
kts
29/11:30pm 13.4 7.2 7.8 69 2.8 SE 30 41 16 22 1021.5 1021.5 0.4
29/11:00pm 13.3 6.6 7.5 68 2.8 SSE 32 46 17 25 1021.8 1021.8 0.4
29/10:30pm 13.2 5.4 6.8 65 3.1 SSE 37 52 20 28 1022.0 1022.0 0.4
29/10:00pm 13.3 6.1 7.7 69 2.7 SSE 35 44 19 24 1022.0 1022.0 0.4
29/09:30pm 13.3 5.7 7.5 68 2.8 S 37 54 20 29 1021.8 1021.8 0.4
29/09:18pm 13.2 5.7 6.5 64 3.2 SSE 35 56 19 30 1022.1 1022.1 0.4
29/09:00pm 13.3 5.2 6.9 65 3.1 S 39 50 21 27 1021.8 1021.8 0.4
29/08:30pm 13.5 5.5 7.3 66 3.0 S 39 50 21 27 1022.1 1022.1 0.4
29/08:00pm 13.5 5.6 7.7 68 2.8 S 39 48 21 26 1022.1 1022.1 0.4
29/07:30pm 13.4 5.3 7.2 66 3.0 SSE 39 50 21 27 1022.1 1022.1 0.4
29/07:00pm 13.9 6.1 8.1 68 2.9 S 39 50 21 27 1022.0 1022.0 0.4
29/06:30pm 13.7 5.5 8.1 69 2.8 SSE 41 50 22 27 1021.8 1021.8 0.4
29/06:00pm 13.9 6.1 8.3 69 2.8 S 39 54 21 29 1022.1 1022.1 0.4
29/05:30pm 14.3 7.1 7.8 65 3.2 SSE 35 46 19 25 1022.4 1022.4 0.4
29/05:00pm 13.5 6.2 8.8 73 2.4 S 37 46 20 25 1022.8 1022.8 0.4
29/04:30pm 14.3 7.8 9.1 71 2.6 SSE 33 44 18 24 1022.8 1022.8 0.4
29/04:00pm 14.3 7.6 9.5 73 2.5 SSE 35 46 19 25 1023.0 1023.0 0.4
29/03:30pm 13.3 7.7 10.3 82 1.6 SSE 30 41 16 22 1023.2 1023.2 0.4
29/03:00pm 13.1 5.6 11.0 87 1.1 S 41 50 22 27 1023.2 1023.2 0.4
29/02:51pm 13.1 6.8 11.0 87 1.1 S 35 48 19 26 1023.1 1023.1 0.4
29/02:30pm 14.1 7.1 9.9 76 2.2 SSE 37 48 20 26 1023.5 1023.5 0.2
29/02:00pm 14.7 8.5 9.9 73 2.5 SSE 33 48 18 26 1023.6 1023.6 0.2
29/01:30pm 13.9 8.2 9.9 77 2.1 SSE 30 39 16 21 1023.7 1023.7 0.2
29/01:00pm 14.7 8.3 9.3 70 2.8 SSE 33 41 18 22 1023.8 1023.8 0.2
29/12:30pm 14.4 8.2 10.0 75 2.3 SSE 33 41 18 22 1024.1 1024.1 0.2
29/12:00pm 14.1 7.8 9.7 75 2.3 SSE 33 41 18 22 1024.2 1024.2 0.2

Latest Capital City Observations: Canberra | Sydney | Melbourne | Brisbane | Adelaide | Perth | Hobart | Darwin

Other Formats:

Comma delimited format used in spreadsheet applications
http://www.bom.gov.au/fwo/IDT60901/IDT60901.95988.axf

JavaScript Object Notation format (JSON) in row-major order
http://www.bom.gov.au/fwo/IDT60901/IDT60901.95988.json